Terminal Aerodrome Forecast
Issued by NWS

Home | Current Version | Previous Version | Text Only | Print | Product List | Glossary On
Versions: 1 2 3 4 5 6 7 8 9 10 11 12
000
FTUS42 TJSJ 222320
TAFJSJ
TAF
TJSJ 222320Z 2300/2324 16008KT P6SM SCT020 BKN050
     FM231300 13010KT P6SM SCT020 BKN100
      AMD NOT SKED=

USA.gov is the U.S. government's official web portal to all federal, state and local government web resources and services.